Saipan, MP

3:11 AM ChST on December 11, 2016 (GMT +1000)
Saipan International

Weather History for PGSN - March, 2013

Change the Weather History Date:

Tuesday, March 12, 2013

  Actual Average Record
Temperature  
Mean Temperature 78 °F -  
Max Temperature 84 °F 82 °F 86 °F (1999)
Min Temperature 73 °F 73 °F 32 °F (1999)
Cooling Degree Days 14    
Growing Degree Days 28 (Base 50)    
Moisture  
Dew Point 71 °F    
Average Humidity 78    
Maximum Humidity 94    
Minimum Humidity 59    
Precipitation  
Precipitation 0.33 in - - ()
Sea Level Pressure  
Sea Level Pressure 29.92 in    
Wind  
Wind Speed 13 mph (NNE)    
Max Wind Speed 21 mph    
Max Gust Speed 29 mph    
Visibility 8 miles    
Events Rain    
Averages and records for this station are not official NWS values.
T = Trace of Precipitation, MM = Missing Value Source: NWS Daily Summary

Daily Weather History Graph

Daily Weather History Graph

Search for Another Location

Airport or City:

Trip Planner

Search our weather history database for the weather conditions in past years. The results will help you decide how hot, cold, wet, or windy it might be!

Date:

Astronomy

Mar. 12, 2013 Rise Set
Actual Time 6:27 AM ChST 6:26 PM ChST
Civil Twilight 6:05 AM ChST 6:48 PM ChST
Nautical Twilight 5:40 AM ChST 7:13 PM ChST
Astronomical Twilight 5:16 AM ChST 7:37 PM ChST
Moon 6:20 AM ChST (3/12) 6:47 PM ChST (3/12)
Length of Visible Light 12h 42m
Length of Day
11h 59m
New Moon, 0% of the Moon is Illuminated
Mar 12
New Moon
Mar 20
First Quarter
Mar 27
Full
Apr 3
Last Quarter
Apr 10
New

Hourly Weather History & Observations

Time (ChST) Temp. Heat Index Dew Point Humidity Pressure Visibility Wind Dir Wind Speed Gust Speed Precip Events Conditions
12:50 AM 75.2 °F - 71.6 °F 89% 29.89 in 3.0 mi NE 12.7 mph - 0.02 in Rain Light Rain
12:54 AM 75.9 °F - 73.0 °F 91% 29.95 in 3.0 mi NE 15.0 mph - 0.03 in Rain Rain
1:25 AM 75.2 °F - 71.6 °F 89% 29.88 in 2.5 mi ENE 13.8 mph - 0.03 in Rain Heavy Rain
1:27 AM 75.2 °F - 71.6 °F 89% 29.88 in 3.0 mi NE 11.5 mph - 0.04 in Rain Rain
1:34 AM 75.2 °F - 71.6 °F 89% 29.88 in 3.0 mi NNE 10.4 mph - 0.06 in Rain Rain
1:54 AM 75.0 °F - 72.0 °F 90% 29.94 in 10.0 mi NNE 4.6 mph - 0.07 in Rain Rain
2:54 AM 75.0 °F - 72.0 °F 90% 29.92 in 7.0 mi North 8.1 mph - 0.03 in Rain Rain
3:54 AM 75.0 °F - 71.1 °F 87% 29.91 in 10.0 mi North 6.9 mph - 0.01 in Rain Rain
4:19 AM 75.2 °F - 71.6 °F 89% 29.86 in 3.0 mi NNE 12.7 mph - 0.08 in Rain Rain
4:33 AM 73.4 °F - 71.6 °F 94% 29.86 in 3.0 mi NNE 11.5 mph 18.4 mph 0.13 in Rain Rain
4:43 AM 73.4 °F - 71.6 °F 94% 29.86 in 3.0 mi NNE 13.8 mph - 0.17 in Rain Rain
4:54 AM 73.0 °F - 71.1 °F 93% 29.92 in 4.0 mi NNE 16.1 mph - 0.18 in Rain Rain
5:54 AM 73.9 °F - 71.1 °F 91% 29.93 in 4.0 mi NNE 15.0 mph - 0.00 in Rain Light Rain
6:54 AM 75.0 °F - 70.0 °F 84% 29.95 in 10.0 mi North 9.2 mph - 0.01 in   Overcast
7:54 AM 79.0 °F - 71.1 °F 77% 29.96 in 10.0 mi NNE 11.5 mph 20.7 mph N/A   Scattered Clouds
8:54 AM 81.0 °F 84.4 °F 70.0 °F 69% 29.97 in 10.0 mi NE 16.1 mph 24.2 mph N/A   Clear
9:54 AM 82.9 °F 86.5 °F 69.1 °F 63% 29.98 in 10.0 mi NNE 16.1 mph 23.0 mph N/A   Partly Cloudy
10:54 AM 84.9 °F 89.4 °F 70.0 °F 61% 29.97 in 10.0 mi NE 19.6 mph 25.3 mph N/A   Overcast
11:54 AM 84.9 °F 89.4 °F 70.0 °F 61% 29.94 in 10.0 mi NNE 18.4 mph 25.3 mph N/A   Mostly Cloudy
12:54 PM 84.0 °F 87.8 °F 69.1 °F 61% 29.92 in 10.0 mi NE 18.4 mph 26.5 mph N/A   Mostly Cloudy
1:54 PM 84.9 °F 88.8 °F 69.1 °F 59% 29.90 in 10.0 mi NE 20.7 mph 28.8 mph N/A   Scattered Clouds
2:54 PM 82.9 °F 86.5 °F 69.1 °F 63% 29.88 in 10.0 mi NE 17.3 mph 26.5 mph N/A   Mostly Cloudy
3:54 PM 82.0 °F 85.5 °F 69.1 °F 65% 29.88 in 10.0 mi NE 17.3 mph - N/A   Overcast
4:54 PM 80.1 °F 82.9 °F 69.1 °F 69% 29.89 in 10.0 mi NE 17.3 mph - N/A   Mostly Cloudy
5:54 PM 80.1 °F 82.9 °F 69.1 °F 69% 29.90 in 10.0 mi NE 16.1 mph - N/A   Mostly Cloudy
6:54 PM 79.0 °F - 69.1 °F 72% 29.91 in 10.0 mi NE 16.1 mph - N/A   Overcast
7:54 PM 79.0 °F - 70.0 °F 74% 29.94 in 10.0 mi NNE 13.8 mph - N/A   Overcast
8:54 PM 79.0 °F - 70.0 °F 74% 29.96 in 10.0 mi NNE 15.0 mph 21.9 mph N/A   Overcast
9:01 PM 78.8 °F - 71.6 °F 78% 29.89 in 10.0 mi NNE 12.7 mph 21.9 mph N/A   Overcast
9:54 PM 79.0 °F - 70.0 °F 74% 29.97 in 10.0 mi NNE 17.3 mph - 0.00 in   Overcast
10:54 PM 78.1 °F - 71.1 °F 79% 29.97 in 10.0 mi NE 16.1 mph - N/A   Overcast
11:54 PM 77.0 °F - 70.0 °F 79% 29.97 in 10.0 mi NNE 15.0 mph - N/A   Mostly Cloudy